#timestamp,LO_Frequency,Hit,StdDev 
1697961615.3,286047002.2,N
1697961635.1,286047004.3,Y
1697961655.9,286047001.6,P
1697961675.7,286047004.3,P
1697961695.6,286047004.0,P
1697961715.4,286047004.1,Y
1697961735.2,286047001.0,P
1697961755.1,286046998.7,N
1697961756.0,286046998.7,N
1697961775.8,286046998.5,N
1697961795.7,286047000.8,N
1697961815.5,286046998.2,N
1697961835.3,286047000.7,N
1697961855.2,286046998.5,N
1697961875.0,286047000.0,N
1697961875.9,286047000.0,N
1697961895.7,286047000.4,N
1697961915.6,286046998.9,N
1697961935.4,286047000.5,N
1697961955.3,286047000.5,N
1697961975.1,286047000.6,N
1697961976.0,286047000.6,N
1697961995.8,286047000.9,N
1697962015.7,286047000.7,N
1697962035.5,286046998.6,N
1697962055.4,286047001.0,N
1697962075.2,286046998.1,N
1697962095.0,286046998.1,N
1697962095.9,286046998.1,N
1697962115.8,286047001.0,N
1697962135.6,286047000.9,N
1697962155.5,286047000.8,N
1697962175.3,286047000.7,N
1697962195.1,286046998.5,N
1697962215.9,286047000.6,N
1697962235.7,286047001.1,N
1697962255.5,286047000.8,N
1697962275.4,286047000.8,N
1697962295.2,286047001.2,N
1697962315.1,286047001.1,N
1697962316.0,286047001.1,N
1697962335.8,286047001.2,N
1697962355.6,286046998.5,N
1697962375.5,286046998.3,N
1697962395.3,286046998.6,N
1697962415.1,286046998.2,N
1697962435.9,286046998.2,N
1697962455.7,286046999.3,N
1697962475.6,286046999.1,N
1697962495.4,286046999.2,N
1697962515.2,286046996.5,N
1697962535.1,286046999.3,N
1697962536.0,286046999.3,N
1697962555.8,286046998.9,N
1697962575.7,286046998.8,N
1697962595.5,286046998.8,N
1697962615.3,286046998.3,N
1697962635.2,286046998.9,N
1697962655.0,286046998.5,N
1697962655.9,286046998.5,N
1697962675.7,286046999.0,N
1697962695.6,286046999.6,N
1697962715.4,286046999.3,N
1697962735.3,286046999.5,N
1697962755.1,286046998.8,N
1697962756.0,286046998.8,N
1697962775.8,286046996.6,Y
1697962795.7,286046999.3,P
1697962815.5,286046999.1,P
1697962835.4,286046996.5,P
1697962855.2,286046999.4,N
1697962875.0,286046996.8,N
1697962875.9,286046996.8,N
1697962895.8,286046996.7,N
1697962915.6,286046997.3,N
1697962935.4,286046999.6,N
1697962955.3,286046997.4,N
1697962975.1,286046997.0,N
1697962995.9,286046996.7,N
1697963015.7,286046996.9,N
1697963035.5,286046996.5,N
1697963055.4,286046996.9,N
1697963075.2,286046997.9,N
1697963095.0,286046998.0,N
1697963095.9,286046998.0,N
1697963115.8,286046997.6,N
1697963135.6,286046997.7,N
1697963155.5,286046995.3,Y
1697963175.3,286046998.6,P
1697963195.1,286046998.2,P
1697963215.9,286047000.8,N
1697963235.7,286046998.5,N
1697963255.5,286047000.5,N
1697963275.4,286047000.3,N
1697963295.2,286047001.0,N
1697963315.1,286047000.3,N
1697963316.0,286047000.3,N
1697963335.8,286047001.0,N
1697963355.6,286046999.9,N
1697963375.5,286047000.6,N
1697963395.3,286047000.7,N
1697963415.2,286046998.1,N
1697963435.9,286047001.0,N
1697963455.7,286047001.2,N
1697963475.6,286047000.9,N
1697963495.4,286047000.2,N
1697963515.3,286047000.0,N
1697963535.1,286047000.5,N
1697963536.0,286047000.5,N
1697963555.8,286046998.2,N
1697963575.7,286046998.3,N
1697963595.5,286046998.9,N
1697963615.3,286046998.9,N
1697963635.2,286046998.2,N
1697963655.0,286047001.2,N
1697963655.9,286047001.2,N
1697963675.8,286047001.1,N
1697963695.6,286046998.2,N
1697963715.4,286047000.7,N
1697963735.3,286046998.6,N
1697963755.1,286046998.9,N
1697963775.9,286046998.3,N
1697963795.7,286046998.6,N
1697963815.5,286046998.6,N
1697963835.4,286046998.2,N
1697963855.2,286046998.7,N
1697963875.0,286046999.0,N
1697963875.9,286046999.0,N
1697963895.8,286046998.4,N
1697963915.6,286046999.0,N
1697963935.5,286047000.8,N
1697963955.3,286046999.5,N
1697963975.1,286046999.5,N
1697963995.9,286046999.4,N
1697964015.7,286046998.2,N
1697964035.5,286046998.4,N
1697964055.4,286046998.1,N
1697964075.2,286047000.7,N
1697964095.1,286047000.8,N
1697964096.0,286047000.8,N
1697964115.8,286046998.8,N
1697964135.6,286046998.3,N
1697964155.5,286046998.5,N
1697964175.3,286046998.3,N
1697964195.2,286046998.4,N
1697964215.9,286047000.7,N
1697964235.7,286046998.8,N
1697964255.6,286047001.2,N
1697964275.4,286047000.7,N
1697964295.2,286046998.1,N
1697964315.1,286046999.0,N
1697964316.0,286046999.0,N
1697964335.8,286046999.2,N
1697964355.7,286046997.4,N
1697964375.5,286046997.3,N
1697964395.3,286046995.0,Y
1697964415.2,286046995.2,P
1697964435.0,286046995.5,N
1697964435.9,286046995.5,N
1697964455.8,286046995.1,Y
1697964475.6,286047000.2,P
1697964495.4,286047002.0,N
1697964515.3,286047003.9,N
1697964535.1,286047001.3,N
1697964555.8,286047004.2,N
1697964575.7,286047004.1,N
1697964595.5,286047004.3,N
1697964615.4,286047001.6,N
1697964635.2,286047004.0,N
1697964655.0,286047001.4,N
1697964655.9,286047001.4,N
1697964675.8,286047001.7,N
1697964695.6,286047002.1,N
1697964715.4,286047004.3,N
1697964735.3,286047004.1,N
1697964755.1,286047004.1,N
1697964775.9,286047001.8,N
1697964795.7,286047001.6,N
1697964815.5,286047003.9,N
1697964835.4,286047001.7,N
1697964855.2,286047003.9,N
1697964875.0,286047004.4,N
1697964875.9,286047004.4,N
1697964895.8,286047001.3,N
1697964915.6,286047001.9,N
1697964935.5,286047002.7,N
1697964955.3,286047002.4,N
1697964975.1,286047002.3,N
1697964995.9,286047000.9,N
1697965015.7,286047002.4,N
1697965035.5,286047000.0,N
1697965055.4,286047001.1,N
1697965075.2,286047000.8,N
1697965095.1,286047000.6,N
1697965096.0,286047000.6,N
1697965115.8,286047000.8,N
1697965135.6,286047000.7,N
1697965155.5,286046999.9,N
1697965175.3,286047001.1,N
1697965195.1,286046998.3,N
